NIMBUS 2 DEB, 28613

Orbit data source: Space-Track

NIMBUS 2 DEB, 28613 is space debris in SSO originally from a launch on Sun, 15 May 1966 UTC launched from the Air Force Western Test Range (AFWTR). Debris objects in space refer to the collection of defunct objects orbiting the Earth. Examples of debris include non-operational satellites, rocket bodies, and fragments generated from explosions, collisions, or faulty payload assembly.

Loading next visibility...
Identifier
28613, 1966-040AC
Orbit
SSO
Country
Flag of USUS
Related business
Manufacturer
Unknown
Mission
Spacecraft
Bus & Motor
Unknown
Mass
Unknown
Launch date (UTC)
1966-05-15 (59 years ago)
Launch vehicle
Unknown
Launch site
Air Force Western Test Range (AFWTR)
Object type
Payload
Rocket body
Debris
Shape & HBR
Unknown
Radar Cross Section
Small (<0.1 m²)

Expand to show TLE details & history
Last TLE update: 15 hours ago

TLE from 15 hours ago
0 NIMBUS 2 DEB
1 28613U 66040AC  25242.11744155  .00004296  00000-0  48448-2 0  9990
2 28613 100.3820  15.7339 0047502 207.5828 331.0026 13.70765912603458
Epoch: 2025-08-30T02:49Z
TLE epoch observation values (Epoch: 2025-08-30T02:49:06.949Z)
Latitude
1.54895°
Longitude
175.18098°
Altitude
968.817 km
Speed
7.383 km/s
True Right ascension
13h 04m 03s
True Declination
1° 32' 24"
Sunlit
Object was in daylight at epoch
Visualization orbit readout
Latitude
Unknown
Longitude
Unknown
Altitude
Unknown
Speed
Unknown
Apparent Right ascension
Unknown
Apparent Declination
Unknown
Sunlit
N/A
Visualization observer readout
Local Sidereal Time
09:05:50
Azimuth
Unknown
Elevation
Unknown
Doppler factor
Unknown
Orbital elements
Apogee altitude
1,029.153 km
Perigee altitude
959.113 km
Semi-major axis
7,372.27 km
Eccentricity
0.00475
Inclination
100.382°
RAAN
15.7339°
Arg. of periapsis
207.5828°
True anomaly
330.73735°
Mean anomaly
331.0026°
Eccentric anomaly
330.87011°
Mean motion
3.42879 °/min
Orbital period
104.99 mins
BSTAR
0.0048448
Loading maneuver chart data...
Computing Atmospheric mass density...
Loading historical data...
Loading historical data...
Loading historical data...
Loading historical data...
Loading historical data...
Loading historical data...
Loading historical data...

Documentation

Showing up to 5 results
|